User: anonymous   Login
Location: Lawrence Hall of Science
(37.8785°N, 122.2415°W)
Time: 07:23:22
(UTC-08:00)
Language:

Cosmos 1461 - Orbit

View from above orbital plane
View from above orbital plane
View from above satellite
View from above satellite

Ground track
Ground track

The orbit data is extracted from the following two-line orbital elements,

1 14064U 83044A   18016.22016509  .00000518  00000-0  57592-4 0  9991
2 14064  65.0016 345.5343 0115106 313.7503  45.4126 14.93940684755173
Epoch (UTC): 16 January 2018 05:17:02
Eccentricity: 0.0115106
inclination: 65.0016°
perigee height: 505 km
apogee height: 666 km
right ascension of ascending node: 345.5343°
argument of perigee: 313.7503°
revolutions per day: 14.93940684
mean anomaly at epoch: 45.4126°
orbit number at epoch: 75517

The dashed part of the orbit path shows where the satellite is in the earth's shadow,  

DLR